Location: Foligno
(42.9600°N, 12.7050°E)
Time: 17:53:37
(UTC+02:00)

ISS - Pass Details

Date: 27 May 2020
Orbit: 417 x 420 km, 51.6° (Epoch: 26 May)

Event Time Altitude Azimuth Distance (km) Brightness Sun altitude
Rises 22:21:26 0° 305° (NW) 2,366 1.6 -15.2°
Reaches altitude 10° 22:23:41 10° 316° (NW) 1,501 0.4 -15.5°
Maximum altitude 22:26:44 31° 21° (NNE) 755 -2.2 -15.8°
Enters shadow 22:28:52 16° 77° (ENE) 1,178 -1.7 -16.1°
